Regional Weather Roundup
Issued by NWS Kansas City/Pleasant Hill, MO

Home | Current Version | Previous Version | Text Only | Print | Product List | Glossary On
Versions: 1 2 3 4 5 6 7 8 9 10 11 12 13 14 15 16 17 18 19 20 21 22 23 24 25 26 27
000
ASUS43 KEAX 281810
RWREAX

WEATHER ROUNDUP FOR EASTERN KANSAS AND NORTHWEST MISSOURI
NATIONAL WEATHER SERVICE KANSAS CITY/PLEASANT HILL MO
100 PM CDT SUN MAY 28 2017

KSZ040-057-103>105-MOZ028-029-037-043-281900-
...KANSAS CITY METROPOLITAN AREA...

CITY           SKY/WX    TMP DP  RH WIND       PRES   REMARKS
K.C. INTL      SUNNY     77  54  44 W8G21     29.95S
6HR MIN TEMP:  59; 6HR MAX TEMP:  77;

K.C. DOWNTOWN  SUNNY     79  53  40 NW10      29.94S
6HR MIN TEMP:  61; 6HR MAX TEMP:  79;

LEES SUMMIT    SUNNY     77  53  43 NW10      29.96S
6HR MIN TEMP:  59; 6HR MAX TEMP:  77;

OLATHE - IXD   SUNNY     77  56  48 W9        29.98R
6HR MIN TEMP:  59; 6HR MAX TEMP:  77;

OLATHE - OJC   SUNNY     76  54  46 W10       29.97S
6HR MIN TEMP:  59; 6HR MAX TEMP:  76;

LAWRENCE       SUNNY     77  56  48 W10       29.97S

$$

MOZ001>008-011>017-020>025-030>033-038>040-044>046-053-054-281900-
...NORTHERN AND CENTRAL MISSOURI...

CITY           SKY/WX    TMP DP  RH WIND       PRES   REMARKS
ST. JOSEPH     SUNNY     78  54  43 W13       29.94R
6HR MIN TEMP:  60; 6HR MAX TEMP:  79;

MOSBY          CLEAR     77  48  36 W8        29.93F
WARRENSBURG    SUNNY     73  55  53 W8        29.95S
WHITEMAN AFB   SUNNY     75  56  51 W10       29.94S
6HR MIN TEMP:  60; 6HR MAX TEMP:  75;

CLINTON        MOSUNNY   75  57  53 NW8       29.97S
SEDALIA        MOSUNNY   75  60  59 W10       29.96S
6HR MIN TEMP:  62; 6HR MAX TEMP:  76;

WARSAW         NOT AVBL
CHILLICOTHE      N/A     77  54  44 VRB5      29.91S
6HR MIN TEMP:  58; 6HR MAX TEMP:  77;

KIRKSVILLE     SUNNY     77  53  43 W10G18    29.89S
6HR MIN TEMP:  58; 6HR MAX TEMP:  77;


$$

MOZ041-047>049-056>058-063>065-088>090-097-281900-
...EASTERN AND SOUTHERN MISSOURI...

CITY           SKY/WX    TMP DP  RH WIND       PRES   REMARKS
ST. LOUIS INTL CLOUDY    75  64  68 W9        29.85F
6HR MIN TEMP:  65; 6HR MAX TEMP:  75; 6HR PCP: TRACE;

SPIRIT OF STL  PTSUNNY   72  66  81 W10       29.85F
COLUMBIA       MOSUNNY   75  60  59 NW13      29.91S
JEFFERSON CITY SUNNY     77  58  51 W15       29.90S
ROLLA          PTSUNNY   69  65  86 NW9       29.90F
OSAGE BEACH    PTSUNNY   74  62  66 VRB7      29.94S
SPRINGFIELD    SUNNY     74  60  61 NW9       29.97S
BRANSON        MOSUNNY   73  63  68 NW12      29.97S
JOPLIN         MOSUNNY   77  60  55 NW8       30.01S
WEST PLAINS    PTSUNNY   73  65  75 W8        29.92S

$$

IAZ060-094-KSZ022-034>040-054-083-096-NEZ052-066-093-281900-
...KANSAS...SOUTHEAST NEBRASKA AND IOWA...

CITY           SKY/WX    TMP DP  RH WIND       PRES   REMARKS
TOPEKA         SUNNY     79  57  46 W8G17     29.97S
6HR MIN TEMP:  60; 6HR MAX TEMP:  79;

MANHATTAN      SUNNY     79  53  40 W7        30.00S
EMPORIA        SUNNY     77  51  40 NW12G21   30.01F
CHANUTE        MOSUNNY   79  52  38 NW9       30.02R
WICHITA        MOSUNNY   78  48  34 NW10      30.06S
OMAHA          MOSUNNY   77  49  37 W9        29.90F
LINCOLN        MOSUNNY   80  43  26 W9        29.95F
FALLS CITY     SUNNY     76  53  44 NW13      29.95S
LAMONI         SUNNY     75  57  53 NW12      29.90S
DES MOINES     MOSUNNY   77  52  41 W7        29.85F

$$





USA.gov is the U.S. government's official web portal to all federal, state and local government web resources and services.